| time (UTC) | temp C | wind direction | speed KPH | gust KPH | rain 1hr cm | rain 24hr cm | rain mn cm | humidity % | barometer mb |
| 20260901140517 | 33 | 274 | 8.0 | 17.7 | 0.00 | 0.00 | 0.00 | 24 | 1018.1 |
| 20260901135557 | 33 | 268 | 8.0 | 16.1 | 0.00 | 0.00 | 0.00 | 25 | 1018.3 |
| 20260901134517 | 32 | 145 | 4.8 | 11.3 | 0.00 | 0.00 | 0.00 | 27 | 1018.2 |
| 20260901133517 | 32 | 222 | 6.4 | 16.1 | 0.00 | 0.00 | 0.00 | 26 | 1018.3 |
| 20260901132557 | 32 | 268 | 4.8 | 14.5 | 0.00 | 0.00 | 0.00 | 26 | 1018.4 |
| 20260901131517 | 32 | 183 | 6.4 | 20.9 | 0.00 | 0.00 | 0.00 | 27 | 1018.5 |
| 20260901130517 | 32 | 268 | 6.4 | 17.7 | 0.00 | 0.00 | 0.00 | 26 | 1018.7 |
| 20260901125558 | 32 | 239 | 4.8 | 19.3 | 0.00 | 0.00 | 0.00 | 28 | 1018.7 |
| 20260901124517 | 32 | 238 | 8.0 | 17.7 | 0.00 | 0.00 | 0.00 | 29 | 1018.8 |
| 20260901123515 | 31 | 155 | 6.4 | 17.7 | 0.00 | 0.00 | 0.00 | 29 | 1018.9 |
| 20260901122515 | 31 | 168 | 6.4 | 14.5 | 0.00 | 0.00 | 0.00 | 31 | 1019.0 |
| 20260901121517 | 31 | 254 | 4.8 | 11.3 | 0.00 | 0.00 | 0.00 | 35 | 1019.0 |
| 20260901120515 | 31 | 250 | 4.8 | 9.7 | 0.00 | 0.00 | 0.00 | 36 | 1019.2 |
| 20260901115517 | 30 | 263 | 6.4 | 12.9 | 0.00 | 0.00 | 0.00 | 36 | 1019.2 |
| 20260901114517 | 30 | 281 | 3.2 | 9.7 | 0.00 | 0.00 | 0.00 | 36 | 1019.3 |
| 20260901113557 | 30 | 84 | 4.8 | 11.3 | 0.00 | 0.00 | 0.00 | 38 | 1019.4 |
| 20260901112517 | 29 | 348 | 3.2 | 11.3 | 0.00 | 0.00 | 0.00 | 42 | 1019.5 |
| 20260901111517 | 29 | 123 | 4.8 | 16.1 | 0.00 | 0.00 | 0.00 | 43 | 1019.6 |
| 20260901110517 | 29 | 82 | 4.8 | 12.9 | 0.00 | 0.00 | 0.00 | 43 | 1019.7 |
| 20260901105517 | 28 | 178 | 3.2 | 11.3 | 0.00 | 0.00 | 0.00 | 44 | 1019.7 |
| 20260901104517 | 28 | 70 | 3.2 | 11.3 | 0.00 | 0.00 | 0.00 | 46 | 1019.8 |
| 20260901103517 | 27 | 57 | 1.6 | 12.9 | 0.00 | 0.00 | 0.00 | 49 | 1019.8 |
| 20260901102557 | 27 | 97 | 3.2 | 11.3 | 0.00 | 0.00 | 0.00 | 51 | 1020.0 |
| 20260901101517 | 26 | 116 | 6.4 | 12.9 | 0.00 | 0.00 | 0.00 | 51 | 1020.0 |
| 20260901100557 | 26 | 120 | 4.8 | 12.9 | 0.00 | 0.00 | 0.00 | 53 | 1020.1 |
| 20260901095515 | 26 | 122 | 4.8 | 14.5 | 0.00 | 0.00 | 0.00 | 54 | 1020.1 |
| 20260901094515 | 25 | 51 | 4.8 | 12.9 | 0.00 | 0.00 | 0.00 | 58 | 1020.2 |
| 20260901093515 | 25 | 49 | 6.4 | 14.5 | 0.00 | 0.00 | 0.00 | 58 | 1020.2 |
| 20260901092515 | 25 | 17 | 4.8 | 11.3 | 0.00 | 0.00 | 0.00 | 60 | 1020.2 |
| 20260901091515 | 24 | 75 | 3.2 | 11.3 | 0.00 | 0.00 | 0.00 | 62 | 1020.0 |
| 20260901090515 | 24 | 25 | 4.8 | 11.3 | 0.00 | 0.00 | 0.00 | 63 | 1020.2 |
| 20260901085615 | 23 | 54 | 4.8 | 12.9 | 0.00 | 0.00 | 0.00 | 64 | 1020.0 |
| 20260901084515 | 23 | 53 | 4.8 | 9.7 | 0.00 | 0.00 | 0.00 | 65 | 1019.9 |
| 20260901083516 | 23 | 57 | 3.2 | 9.7 | 0.00 | 0.00 | 0.00 | 66 | 1019.9 |
| 20260901082515 | 22 | 116 | 3.2 | 8.0 | 0.00 | 0.00 | 0.00 | 66 | 1019.9 |
| 20260901081515 | 22 | 45 | 4.8 | 9.7 | 0.00 | 0.00 | 0.00 | 67 | 1019.9 |
| 20260901080516 | 22 | 46 | 4.8 | 9.7 | 0.00 | 0.00 | 0.00 | 68 | 1020.0 |
| 20260901075555 | 22 | 57 | 4.8 | 8.0 | 0.00 | 0.00 | 0.00 | 68 | 1020.0 |
| 20260901074515 | 22 | 59 | 6.4 | 9.7 | 0.00 | 0.00 | 0.00 | 68 | 1020.1 |
| 20260901073515 | 21 | 50 | 3.2 | 8.0 | 0.00 | 0.00 | 0.00 | 66 | 1020.1 |
| 20260901072515 | 21 | 49 | 3.2 | 9.7 | 0.00 | 0.00 | 0.00 | 65 | 1020.2 |
| 20260901071515 | 21 | 62 | 3.2 | 9.7 | 0.00 | 0.00 | 0.00 | 64 | 1020.2 |
| 20260901070555 | 21 | 59 | 4.8 | 8.0 | 0.00 | 0.00 | 0.00 | 64 | 1020.2 |
| 20260901065515 | 20 | 64 | 3.2 | 8.0 | 0.00 | 0.00 | 0.00 | 60 | 1020.1 |
| 20260901064555 | 20 | 44 | 3.2 | 8.0 | 0.00 | 0.00 | 0.00 | 60 | 1020.1 |
| 20260901063515 | 20 | 78 | 3.2 | 6.4 | 0.00 | 0.00 | 0.00 | 60 | 1020.0 |
| 20260901062515 | 20 | 37 | 3.2 | 8.0 | 0.00 | 0.00 | 0.00 | 62 | 1019.9 |
| 20260901061555 | 20 | 64 | 3.2 | 6.4 | 0.00 | 0.00 | 0.00 | 64 | 1019.9 |
| 20260901060515 | 20 | 46 | 1.6 | 4.8 | 0.00 | 0.00 | 0.00 | 64 | 1020.0 |
| 20260901055555 | 20 | 43 | 3.2 | 8.0 | 0.00 | 0.00 | 0.00 | 65 | 1019.9 |
| 20260901054515 | 20 | 65 | 1.6 | 4.8 | 0.00 | 0.00 | 0.00 | 66 | 1019.8 |
| 20260901053555 | 20 | 65 | 1.6 | 6.4 | 0.00 | 0.00 | 0.00 | 68 | 1019.8 |
| 20260901052515 | 20 | 57 | 0.0 | 3.2 | 0.00 | 0.00 | 0.00 | 67 | 1019.7 |
| 20260901051515 | 20 | 0.0 | 0.0 | 0.00 | 0.00 | 0.00 | 65 | 1019.6 | |
| 20260901050515 | 20 | 57 | 0.0 | 3.2 | 0.00 | 0.00 | 0.00 | 64 | 1019.6 |
| 20260901045515 | 20 | 57 | 1.6 | 3.2 | 0.00 | 0.00 | 0.00 | 62 | 1019.5 |
| 20260901044515 | 20 | 57 | 0.0 | 4.8 | 0.00 | 0.00 | 0.00 | 64 | 1019.4 |
| 20260901043515 | 20 | 57 | 0.0 | 3.2 | 0.00 | 0.00 | 0.00 | 64 | 1019.3 |
| 20260901042555 | 21 | 0.0 | 0.0 | 0.00 | 0.00 | 0.00 | 64 | 1019.3 | |
| 20260901041515 | 21 | 0.0 | 0.0 | 0.00 | 0.00 | 0.00 | 62 | 1019.2 | |
| 20260901040515 | 21 | 0.0 | 0.0 | 0.00 | 0.00 | 0.00 | 62 | 1019.2 | |
| 20260901035555 | 21 | 0.0 | 0.0 | 0.00 | 0.00 | 0.00 | 61 | 1019.1 | |
| 20260901034555 | 21 | 0.0 | 0.0 | 0.00 | 0.00 | 0.00 | 60 | 1019.0 | |
| 20260901033515 | 21 | 0.0 | 0.0 | 0.00 | 0.00 | 0.00 | 57 | 1019.0 | |
| 20260901032515 | 21 | 0.0 | 0.0 | 0.00 | 0.00 | 0.00 | 54 | 1019.0 | |
| 20260901031515 | 21 | 0.0 | 0.0 | 0.00 | 0.00 | 0.00 | 51 | 1018.9 | |
| 20260901030515 | 21 | 0.0 | 0.0 | 0.00 | 0.00 | 0.00 | 49 | 1018.8 | |
| 20260901025515 | 21 | 0.0 | 0.0 | 0.00 | 0.00 | 0.00 | 48 | 1018.9 | |
| 20260901024555 | 21 | 57 | 1.6 | 3.2 | 0.00 | 0.00 | 0.00 | 47 | 1018.8 |
| 20260901023515 | 21 | 57 | 1.6 | 4.8 | 0.00 | 0.00 | 0.00 | 48 | 1018.8 |
| 20260901022515 | 21 | 0.0 | 0.0 | 0.00 | 0.00 | 0.00 | 49 | 1018.7 | |
| 20260901021515 | 21 | 0.0 | 0.0 | 0.00 | 0.00 | 0.00 | 48 | 1018.8 | |
| 20260901020515 | 21 | 0.0 | 0.0 | 0.00 | 0.00 | 0.00 | 46 | 1018.8 | |
| 20260901015515 | 22 | 0.0 | 0.0 | 0.00 | 0.00 | 0.00 | 45 | 1018.9 | |
| 20260901014516 | 22 | 0.0 | 0.0 | 0.00 | 0.00 | 0.00 | 43 | 1018.9 | |
| 20260901013515 | 22 | 0.0 | 0.0 | 0.00 | 0.00 | 0.00 | 42 | 1018.8 | |
| 20260901012516 | 22 | 0.0 | 0.0 | 0.00 | 0.00 | 0.00 | 41 | 1018.8 | |
| 20260901011555 | 22 | 57 | 1.6 | 11.3 | 0.00 | 0.00 | 0.00 | 41 | 1018.8 |
| 20260901010515 | 22 | 48 | 3.2 | 8.0 | 0.00 | 0.00 | 0.00 | 40 | 1018.8 |
| 20260901005515 | 22 | 69 | 1.6 | 6.4 | 0.00 | 0.00 | 0.00 | 40 | 1018.7 |
| 20260901004555 | 22 | 29 | 1.6 | 3.2 | 0.00 | 0.00 | 0.00 | 40 | 1018.7 |
| 20260901003515 | 22 | 29 | 1.6 | 9.7 | 0.00 | 0.00 | 0.00 | 41 | 1018.6 |
| 20260901002556 | 22 | 46 | 4.8 | 8.0 | 0.00 | 0.00 | 0.00 | 42 | 1018.6 |
| 20260901001516 | 22 | 76 | 3.2 | 9.7 | 0.00 | 0.00 | 0.00 | 41 | 1018.7 |
| 20260901000555 | 23 | 72 | 6.4 | 12.9 | 0.00 | 0.00 | 0.00 | 38 | 1018.8 |
| 20260831235517 | 23 | 34 | 3.2 | 4.8 | 0.00 | 0.00 | 0.00 | 40 | 1018.5 |
| 20260831234517 | 23 | 0.0 | 0.0 | 0.00 | 0.00 | 0.00 | 39 | 1018.4 | |
| 20260831233517 | 23 | 0.0 | 0.0 | 0.00 | 0.00 | 0.00 | 39 | 1018.3 | |
| 20260831232517 | 23 | 34 | 0.0 | 3.2 | 0.00 | 0.00 | 0.00 | 38 | 1018.4 |
| 20260831231557 | 23 | 34 | 3.2 | 4.8 | 0.00 | 0.00 | 0.00 | 38 | 1018.4 |
| 20260831230517 | 23 | 18 | 0.0 | 3.2 | 0.00 | 0.00 | 0.00 | 37 | 1018.2 |
| 20260831225515 | 23 | 0.0 | 0.0 | 0.00 | 0.00 | 0.00 | 37 | 1018.2 | |
| 20260831224517 | 24 | 0.0 | 0.0 | 0.00 | 0.00 | 0.00 | 37 | 1018.1 | |
| 20260831223515 | 24 | 0.0 | 0.0 | 0.00 | 0.00 | 0.00 | 38 | 1018.0 | |
| 20260831222517 | 25 | 0.0 | 0.0 | 0.00 | 0.00 | 0.00 | 37 | 1018.1 | |
| 20260831221557 | 25 | 0.0 | 0.0 | 0.00 | 0.00 | 0.00 | 36 | 1018.0 | |
| 20260831220517 | 25 | 0.0 | 0.0 | 0.00 | 0.00 | 0.00 | 36 | 1018.0 | |
| 20260831215517 | 25 | 0.0 | 0.0 | 0.00 | 0.00 | 0.00 | 36 | 1018.0 | |
| 20260831214517 | 25 | 0.0 | 1.6 | 0.00 | 0.00 | 0.00 | 36 | 1017.9 | |
| 20260831213517 | 25 | 18 | 1.6 | 4.8 | 0.00 | 0.00 | 0.00 | 36 | 1017.9 |
| 20260831212557 | 25 | 0.0 | 0.0 | 0.00 | 0.00 | 0.00 | 37 | 1017.9 | |
| 20260831211517 | 26 | 0.0 | 0.0 | 0.00 | 0.00 | 0.00 | 37 | 1017.7 | |
| 20260831210517 | 26 | 0.0 | 0.0 | 0.00 | 0.00 | 0.00 | 36 | 1017.6 | |
| 20260831205517 | 26 | 0.0 | 0.0 | 0.00 | 0.00 | 0.00 | 35 | 1017.5 | |
| 20260831204515 | 26 | 0.0 | 0.0 | 0.00 | 0.00 | 0.00 | 34 | 1017.4 | |
| 20260831203515 | 26 | 0.0 | 0.0 | 0.00 | 0.00 | 0.00 | 34 | 1017.3 | |
| 20260831202515 | 27 | 0.0 | 0.0 | 0.00 | 0.00 | 0.00 | 33 | 1017.3 | |
| 20260831201516 | 27 | 0.0 | 0.0 | 0.00 | 0.00 | 0.00 | 32 | 1017.1 | |
| 20260831200555 | 27 | 0.0 | 0.0 | 0.00 | 0.00 | 0.00 | 32 | 1016.9 | |
| 20260831195515 | 28 | 0.0 | 0.0 | 0.00 | 0.00 | 0.00 | 31 | 1016.9 | |
| 20260831194515 | 28 | 0.0 | 0.0 | 0.00 | 0.00 | 0.00 | 30 | 1016.7 | |
| 20260831193515 | 28 | 0.0 | 0.0 | 0.00 | 0.00 | 0.00 | 30 | 1016.5 | |
| 20260831192515 | 29 | 0.0 | 0.0 | 0.00 | 0.00 | 0.00 | 29 | 1016.5 | |
| 20260831191515 | 30 | 0.0 | 1.6 | 0.00 | 0.00 | 0.00 | 28 | 1016.4 | |
| 20260831190515 | 30 | 18 | 1.6 | 3.2 | 0.00 | 0.00 | 0.00 | 27 | 1016.4 |
| 20260831185515 | 30 | 18 | 1.6 | 4.8 | 0.00 | 0.00 | 0.00 | 26 | 1016.4 |
| 20260831184615 | 31 | 355 | 1.6 | 3.2 | 0.00 | 0.00 | 0.00 | 26 | 1016.4 |
| 20260831183515 | 32 | 353 | 1.6 | 4.8 | 0.00 | 0.00 | 0.00 | 24 | 1016.5 |
| 20260831182515 | 32 | 285 | 3.2 | 8.0 | 0.00 | 0.00 | 0.00 | 24 | 1016.5 |
| 20260831181515 | 32 | 270 | 1.6 | 4.8 | 0.00 | 0.00 | 0.00 | 24 | 1016.6 |
| 20260831180515 | 33 | 276 | 1.6 | 6.4 | 0.00 | 0.00 | 0.00 | 24 | 1016.7 |
| 20260831175515 | 33 | 275 | 3.2 | 4.8 | 0.00 | 0.00 | 0.00 | 23 | 1016.8 |
| 20260831174515 | 33 | 288 | 3.2 | 11.3 | 0.00 | 0.00 | 0.00 | 24 | 1016.8 |
| 20260831173555 | 33 | 287 | 4.8 | 9.7 | 0.00 | 0.00 | 0.00 | 23 | 1016.8 |
| 20260831172515 | 33 | 278 | 3.2 | 11.3 | 0.00 | 0.00 | 0.00 | 24 | 1016.8 |
| 20260831171515 | 33 | 262 | 4.8 | 9.7 | 0.00 | 0.00 | 0.00 | 23 | 1016.8 |
| 20260831170515 | 33 | 282 | 3.2 | 9.7 | 0.00 | 0.00 | 0.00 | 22 | 1016.9 |
| 20260831165515 | 33 | 270 | 6.4 | 14.5 | 0.00 | 0.00 | 0.00 | 23 | 1016.9 |
| 20260831164515 | 33 | 333 | 4.8 | 14.5 | 0.00 | 0.00 | 0.00 | 22 | 1017.0 |
| 20260831163515 | 33 | 296 | 3.2 | 9.7 | 0.00 | 0.00 | 0.00 | 22 | 1017.1 |
| 20260831162635 | 33 | 237 | 4.8 | 11.3 | 0.00 | 0.00 | 0.00 | 23 | 1017.2 |
| 20260831161555 | 33 | 225 | 4.8 | 12.9 | 0.00 | 0.00 | 0.00 | 23 | 1017.3 |
| 20260831160515 | 33 | 259 | 4.8 | 14.5 | 0.00 | 0.00 | 0.00 | 23 | 1017.4 |
| 20260831155515 | 33 | 269 | 8.0 | 19.3 | 0.00 | 0.00 | 0.00 | 23 | 1017.6 |
| 20260831154515 | 33 | 250 | 4.8 | 14.5 | 0.00 | 0.00 | 0.00 | 23 | 1017.6 |
| 20260831153515 | 33 | 276 | 9.7 | 19.3 | 0.00 | 0.00 | 0.00 | 23 | 1017.7 |
| 20260831152515 | 32 | 286 | 6.4 | 12.9 | 0.00 | 0.00 | 0.00 | 23 | 1017.7 |
| 20260831151515 | 32 | 265 | 6.4 | 17.7 | 0.00 | 0.00 | 0.00 | 23 | 1017.9 |
| 20260831150515 | 32 | 277 | 6.4 | 17.7 | 0.00 | 0.00 | 0.00 | 23 | 1018.0 |
| 20260831145515 | 32 | 268 | 9.7 | 20.9 | 0.00 | 0.00 | 0.00 | 23 | 1018.0 |
| 20260831144515 | 32 | 262 | 8.0 | 12.9 | 0.00 | 0.00 | 0.00 | 23 | 1018.0 |
| 20260831143515 | 32 | 225 | 6.4 | 17.7 | 0.00 | 0.00 | 0.00 | 23 | 1018.1 |
| 20260831142515 | 32 | 249 | 8.0 | 20.9 | 0.00 | 0.00 | 0.00 | 24 | 1018.2 |
| 20260831141516 | 32 | 264 | 6.4 | 19.3 | 0.00 | 0.00 | 0.00 | 24 | 1018.3 |